CHEFSAT (43044 NORAD) Tracking and Keplerian Element Data

This shows tracking and keplerian element data for the satellite.

Feedback or suggestion? Click here.




ElementValue
Catalog43044
NameCHEFSAT
Epoch Orbit4474
Epoch Day266.5582046
Epoch Year2018
RAAN280.694
Inclination51.6387
Eccentricity0.0004416
Argument of Perigee266.8891
Mean Anonmoly93.1588
Mean Motion15.40703659
Decay Rate6.867E-05
L11 43044U 17071H 18266.55820460 .00006867 00000-0 17506-3 0 9993
L22 43044 51.6387 280.6940 0004416 266.8891 93.1588 15.40703659 44744

Live tracking and technical data element details for CHEFSAT (NORAD 43044). CHEFSAT can be tracked NOW for your location showing map with azimuth and elevation plus other details from your city location.

Track the satellite on the map from your city or location and see movement details for azimuth, elevation, latitude, longitude, range, height, and movement on the map or in text.







IsCatalogInMostPopularTable: catalog: 43044, numindb: 121
Update: records affected: 1



GetName: 43044 CHEFSAT

Hit Count: updated at: Tue, 25 Sep 2018 14:58:46 GMT